This is the latest recevied weather packets stored in our database for station/object OE9SAU-10. If no packets are shown the sender has not sent any weather packets the latest 10 day(s).
| Time | Temp. | Humidity | Pressure | Rain* | Wind** | Luminosity | Snow |
|---|---|---|---|---|---|---|---|
| 1777603693 | 10.56° C | 41% | 1027.7 hPa | - | - | - | - |
| 1777602793 | 10.56° C | 41% | 1027.6 hPa | - | - | - | - |
| 1777601893 | 11.11° C | 41% | 1027.7 hPa | - | - | - | - |
| 1777600993 | 11.11° C | 40% | 1027.7 hPa | - | - | - | - |
| 1777600093 | 11.11° C | 40% | 1027.4 hPa | - | - | - | - |
| 1777599193 | 11.67° C | 40% | 1027.3 hPa | - | - | - | - |
| 1777598293 | 11.67° C | 40% | 1027.3 hPa | - | - | - | - |
| 1777597393 | 12.22° C | 39% | 1027.3 hPa | - | - | - | - |
| 1777596493 | 12.22° C | 39% | 1027.3 hPa | - | - | - | - |
| 1777595593 | 12.22° C | 39% | 1027.3 hPa | - | - | - | - |
| 1777594693 | 12.78° C | 38% | 1027.3 hPa | - | - | - | - |
| 1777593793 | 12.78° C | 38% | 1027.3 hPa | - | - | - | - |
| 1777592893 | 13.33° C | 37% | 1027.3 hPa | - | - | - | - |
| 1777591993 | 13.33° C | 37% | 1027.2 hPa | - | - | - | - |
| 1777591093 | 13.89° C | 37% | 1027.2 hPa | - | - | - | - |
| 1777590193 | 13.89° C | 37% | 1027.2 hPa | - | - | - | - |
| 1777589292 | 13.89° C | 36% | 1027 hPa | - | - | - | - |
| 1777588392 | 14.44° C | 36% | 1026.9 hPa | - | - | - | - |
| 1777587492 | 15° C | 36% | 1026.8 hPa | - | - | - | - |
| 1777586592 | 15° C | 35% | 1026.7 hPa | - | - | - | - |
| 1777585692 | 15.56° C | 34% | 1026.5 hPa | - | - | - | - |
| 1777584792 | 15.56° C | 35% | 1026.4 hPa | - | - | - | - |
| 1777583892 | 16.11° C | 34% | 1026.4 hPa | - | - | - | - |
| 1777582992 | 16.11° C | 34% | 1026.4 hPa | - | - | - | - |
| 1777582092 | 16.67° C | 34% | 1026.3 hPa | - | - | - | - |
* Rain since midnight (hover to see other rain measurements)
** Current wind speed in m/s (hover to see current wind gust speed)